Location: Pedholt
(56.0260°N, 10.2097°E)
Time: 21:10:59
(UTC+00:00)

Tiros 1 - Pass Details

Date: 07 August 2021
Orbit: 630 x 663 km, 48.4° (Epoch: 19 September)

Event Time Altitude Azimuth Distance (km) Brightness Sun altitude
Rises 20:39:00 0° 269° (W) 2,979 11.2 -9.9°
Reaches altitude 10° 20:42:26 10° 244° (WSW) 2,057 9.9 -10.2°
Maximum altitude 20:44:45 14° 215° (SW) 1,816 9.3 -10.4°
Drops below altitude 10° 20:47:04 10° 185° (S) 2,041 9.3 -10.6°
Enters shadow 20:47:41 - 179° (S) 2,166 9.4 -10.6°
Sets 20:50:28 0° 159° (SSE) 2,939 - -10.9°
